• Join FlightAware (Why Join?)
  • Login
  • US Flag GB Flag 
00:42 EDT


 

Airport Tracker/Info


-or-


 

Live Flight TrackerFlight Track Log ✈ SWA1969 ✈ 09-Apr-2013 ✈ KDAL - KOKC

Flight Track Log - Related Links

Times and Time Zones

All times are in EDT time to prevent confusion due to time zone crossing. See the SWA1969 flight status page for this flight to view local times or setup timezone preferences in your user account.

Time Position Orientation Groundspeed Altitude Reporting Facility
EDT Latitude Longitude Course Direction KTS MPH feet Rate Location/Type
07:27 32.8333 -96.8500 128° Southeast 142 163 1,600  Level Dallas / Fort Worth TRACON
07:28 32.8000 -96.8000 128° Southeast 187 215 5,300 3,600 Climbing Dallas / Fort Worth TRACON
07:29 32.8500 -96.7500 40° Northeast 259 298 8,900 3,120 Climbing Dallas / Fort Worth TRACON
07:31 32.9864 -96.8067 341° North 302 348 13,900 2,940 Climbing Fort Worth Center
07:32 33.0639 -96.8606 330° Northwest 337 388 17,000 2,280 Climbing Fort Worth Center
07:33 33.1603 -96.9219 332° Northwest 354 407 18,500 2,100 Climbing Fort Worth Center
07:34 33.2544 -96.9836 331° Northwest 366 421 21,300 2,700 Climbing Fort Worth Center
07:35 33.3506 -97.0406 334° Northwest 393 452 23,900 3,180 Climbing Fort Worth Center
07:36 33.4531 -97.1047 332° Northwest 414 476 27,700 2,520 Climbing Fort Worth Center
07:37 33.5658 -97.1317 349° North 414 476 29,000 600 Climbing Fort Worth Center
07:38 33.6869 -97.1614 348° North 424 488 29,000  Level Fort Worth Center
07:39 33.8058 -97.1908 348° North 435 501 29,000  Level Fort Worth Center
07:40 33.9250 -97.2208 348° North 441 507 29,000  Level Fort Worth Center
07:41 34.0458 -97.2531 348° North 441 507 29,000 -1,020 Level Fort Worth Center
07:42 34.1628 -97.2856 347° North 429 494 27,000 -2,820 Descending Fort Worth Center
07:43 34.2839 -97.3181 347° North 434 499 23,400 -3,600 Descending Fort Worth Center
07:44 34.4069 -97.3481 349° North 440 506 19,900 -6,240 Descending Fort Worth Center
07:45 34.5281 -97.3783 348° North 440 506 11,000 -3,180 Descending Fort Worth Center
07:45 34.6094 -97.3983 349° North 414 476 14,800 3,300 Climbing Fort Worth Center
07:46 34.6386 -97.4058 348° North 425 489 14,300 -1,740 Descending Fort Worth Center
07:47 34.7178 -97.4286 347° North 365 420 12,900 -1,620 Descending Fort Worth Center
07:47 34.7389 -97.4336 349° North 394 453 12,700 -1,440 Descending Fort Worth Center
07:48 34.8264 -97.4439 354° North 337 388 11,300 -960 Descending Fort Worth Center
07:49 34.9181 -97.4567 353° North 326 375 11,000 -720 Descending Fort Worth Center
07:50 35.0017 -97.4592 359° North 319 367 10,000 -960 Descending Fort Worth Center
07:50 35.0119 -97.4592 360° North 323 372 9,900 -1,320 Descending Fort Worth Center
07:51 35.0892 -97.4617 358° North 321 369 8,700 -1,560 Descending Fort Worth Center
07:52 35.1789 -97.4644 359° North 322 371 7,200 -1,380 Descending Fort Worth Center
07:53 35.2644 -97.4669 359° North 310 357 6,000 -600 Descending Fort Worth Center
07:54 35.3417 -97.4694 358° North 261 300 6,000 -540 Level Fort Worth Center
07:55 35.4186 -97.4697 360° North 256 295 5,000 -840 Descending Fort Worth Center
07:56 35.4939 -97.4800 354° North 252 290 4,200 -540 Descending Fort Worth Center
07:57 35.5397 -97.5056 336° Northwest 208 239 4,000 -540 Descending Fort Worth Center
07:58 35.5542 -97.5642 287° West 164 189 3,300 -480 Descending Fort Worth Center
07:59 35.5144 -97.5894 207° Southwest 133 153 3,000 -360 Descending Fort Worth Center
08:00 35.4750 -97.5919 183° South 142 163 2,600 -540 Descending Fort Worth Center
08:01 35.4375 -97.5919 180° South 129 148 1,900 -660 Descending Fort Worth Center